Location: La Trinit�
(48.1620°N, 3.4512°W)
Time: 16:40:42
(UTC+00:00)

Sich 1 - Pass Details

Date: 08 May 2021
Orbit: 595 x 624 km, 82.5° (Epoch: 23 June)

Event Time Altitude Azimuth Distance (km) Brightness Sun altitude
Rises 20:31:57 0° 352° (N) 2,864 7.2 -8.5°
Reaches altitude 10° 20:34:11 10° 356° (N) 1,960 6.3 -8.8°
Maximum altitude 20:38:30 66° 79° (E) 665 3.1 -9.3°
Drops below altitude 10° 20:42:49 10° 162° (SSE) 1,961 5.1 -9.9°
Enters shadow 20:43:02 - 162° (SSE) 2,047 5.2 -9.9°
